| time (UTC) | temp F | wind direction | speed MPH | gust MPH | rain 1hr in | rain 24hr in | rain mn in | humidity % | barometer mb |
| 20260902220833 | 85 | 199 | 3.0 | 6.0 | 0.00 | 0.16 | 0.16 | 74 | 1015.6 |
| 20260902220338 | 85 | 173 | 3.0 | 7.0 | 0.00 | 0.16 | 0.16 | 75 | 1015.6 |
| 20260902215842 | 85 | 192 | 4.0 | 7.0 | 0.00 | 0.16 | 0.16 | 75 | 1015.5 |
| 20260902215326 | 86 | 194 | 2.0 | 9.0 | 0.00 | 0.16 | 0.16 | 74 | 1015.6 |
| 20260902214830 | 86 | 191 | 3.0 | 9.0 | 0.00 | 0.16 | 0.16 | 74 | 1015.8 |
| 20260902214355 | 86 | 190 | 4.0 | 6.0 | 0.00 | 0.16 | 0.16 | 73 | 1015.7 |
| 20260902213838 | 86 | 198 | 3.0 | 5.0 | 0.00 | 0.16 | 0.16 | 72 | 1015.7 |
| 20260902213323 | 86 | 165 | 1.0 | 4.0 | 0.00 | 0.16 | 0.16 | 73 | 1015.7 |
| 20260902212831 | 86 | 183 | 1.0 | 5.0 | 0.00 | 0.16 | 0.16 | 74 | 1015.7 |
| 20260902212334 | 86 | 198 | 2.0 | 5.0 | 0.00 | 0.16 | 0.16 | 73 | 1015.7 |
| 20260902211839 | 86 | 186 | 3.0 | 5.0 | 0.00 | 0.16 | 0.16 | 72 | 1015.7 |
| 20260902211327 | 87 | 218 | 3.0 | 5.0 | 0.00 | 0.16 | 0.16 | 73 | 1015.8 |
| 20260902210834 | 87 | 203 | 1.0 | 5.0 | 0.00 | 0.16 | 0.16 | 72 | 1015.8 |
| 20260902210401 | 87 | 269 | 2.0 | 3.0 | 0.00 | 0.16 | 0.16 | 72 | 1015.7 |
| 20260902205825 | 87 | 269 | 2.0 | 3.0 | 0.00 | 0.16 | 0.16 | 72 | 1015.9 |
| 20260902205329 | 87 | 242 | 1.0 | 4.0 | 0.00 | 0.16 | 0.16 | 71 | 1015.9 |
| 20260902204833 | 87 | 165 | 1.0 | 4.0 | 0.00 | 0.16 | 0.16 | 72 | 1016.0 |
| 20260902204338 | 87 | 196 | 1.0 | 3.0 | 0.00 | 0.16 | 0.16 | 71 | 1016.1 |
| 20260902203843 | 87 | 196 | 0.0 | 4.0 | 0.00 | 0.16 | 0.16 | 72 | 1016.1 |
| 20260902203327 | 87 | 196 | 2.0 | 4.0 | 0.00 | 0.16 | 0.16 | 73 | 1016.0 |
| 20260902202830 | 87 | 196 | 2.0 | 3.0 | 0.00 | 0.16 | 0.16 | 73 | 1015.9 |
| 20260902202337 | 87 | 196 | 0.0 | 3.0 | 0.00 | 0.16 | 0.16 | 74 | 1015.9 |
| 20260902201826 | 86 | 196 | 0.0 | 3.0 | 0.00 | 0.16 | 0.16 | 74 | 1016.1 |
| 20260902201330 | 86 | 196 | 1.0 | 5.0 | 0.00 | 0.16 | 0.16 | 74 | 1016.2 |
| 20260902200835 | 85 | 196 | 0.0 | 5.0 | 0.00 | 0.16 | 0.16 | 74 | 1016.3 |
| 20260902200339 | 85 | 204 | 2.0 | 5.0 | 0.00 | 0.16 | 0.16 | 76 | 1016.4 |
| 20260902195844 | 85 | 211 | 1.0 | 5.0 | 0.00 | 0.16 | 0.16 | 75 | 1016.5 |
| 20260902195328 | 85 | 269 | 1.0 | 3.0 | 0.00 | 0.16 | 0.16 | 76 | 1016.4 |
| 20260902194832 | 85 | 186 | 2.0 | 3.0 | 0.00 | 0.16 | 0.16 | 78 | 1016.3 |
| 20260902194336 | 84 | 252 | 2.0 | 3.0 | 0.00 | 0.16 | 0.16 | 78 | 1016.3 |
| 20260902193823 | 84 | 184 | 0.0 | 5.0 | 0.00 | 0.16 | 0.16 | 78 | 1016.1 |
| 20260902193350 | 83 | 274 | 1.0 | 6.0 | 0.00 | 0.16 | 0.16 | 78 | 1016.0 |
| 20260902192857 | 83 | 327 | 4.0 | 6.0 | 0.00 | 0.16 | 0.16 | 78 | 1016.0 |
| 20260902192324 | 83 | 166 | 0.0 | 2.0 | 0.00 | 0.16 | 0.16 | 78 | 1016.1 |
| 20260902191828 | 82 | 166 | 0.0 | 3.0 | 0.00 | 0.16 | 0.16 | 80 | 1016.4 |
| 20260902191333 | 82 | 166 | 1.0 | 3.0 | 0.00 | 0.16 | 0.16 | 80 | 1016.4 |
| 20260902190837 | 81 | 112 | 0.0 | 3.0 | 0.00 | 0.16 | 0.16 | 80 | 1016.7 |
| 20260902190342 | 81 | 112 | 1.0 | 3.0 | 0.00 | 0.16 | 0.16 | 80 | 1016.8 |
| 20260902185827 | 81 | 112 | 0.0 | 2.0 | 0.01 | 0.16 | 0.16 | 80 | 1016.9 |
| 20260902185329 | 81 | 112 | 0.0 | 2.0 | 0.01 | 0.16 | 0.16 | 80 | 1017.1 |
| 20260902184836 | 81 | 112 | 0.0 | 2.0 | 0.01 | 0.16 | 0.16 | 81 | 1017.2 |
| 20260902184343 | 81 | 112 | 1.0 | 3.0 | 0.01 | 0.16 | 0.16 | 81 | 1016.9 |
| 20260902183828 | 81 | 106 | 1.0 | 3.0 | 0.01 | 0.16 | 0.16 | 80 | 1017.0 |
| 20260902183332 | 82 | 126 | 2.0 | 3.0 | 0.01 | 0.16 | 0.16 | 80 | 1017.0 |
| 20260902182841 | 82 | 86 | 1.0 | 4.0 | 0.01 | 0.16 | 0.16 | 80 | 1016.9 |
| 20260902182323 | 82 | 62 | 2.0 | 7.0 | 0.01 | 0.16 | 0.16 | 78 | 1016.9 |
| 20260902181831 | 81 | 112 | 1.0 | 7.0 | 0.01 | 0.16 | 0.16 | 81 | 1016.7 |
| 20260902181336 | 81 | 5 | 4.0 | 6.0 | 0.01 | 0.16 | 0.16 | 82 | 1016.7 |
| 20260902180840 | 80 | 355 | 3.0 | 9.0 | 0.01 | 0.16 | 0.16 | 84 | 1016.8 |
| 20260902180324 | 79 | 10 | 4.0 | 9.0 | 0.01 | 0.16 | 0.16 | 85 | 1016.7 |
| 20260902175833 | 79 | 350 | 2.0 | 6.0 | 0.00 | 0.15 | 0.15 | 87 | 1016.6 |
| 20260902175336 | 78 | 63 | 1.0 | 4.0 | 0.00 | 0.15 | 0.15 | 88 | 1017.0 |
| 20260902174841 | 77 | 340 | 1.0 | 2.0 | 0.00 | 0.15 | 0.15 | 90 | 1017.3 |
| 20260902174325 | 76 | 340 | 0.0 | 0.0 | 0.00 | 0.15 | 0.15 | 89 | 1017.4 |
| 20260902173833 | 76 | 112 | 0.0 | 1.0 | 0.01 | 0.15 | 0.15 | 89 | 1017.6 |
| 20260902173340 | 76 | 112 | 0.0 | 1.0 | 0.07 | 0.15 | 0.15 | 90 | 1017.3 |
| 20260902172825 | 76 | 57 | 0.0 | 3.0 | 0.10 | 0.15 | 0.15 | 90 | 1017.4 |
| 20260902172348 | 76 | 57 | 1.0 | 5.0 | 0.15 | 0.15 | 0.15 | 90 | 1017.5 |
| 20260902171832 | 76 | 16 | 1.0 | 5.0 | 0.15 | 0.15 | 0.15 | 91 | 1018.0 |
| 20260902171337 | 76 | 28 | 0.0 | 5.0 | 0.15 | 0.15 | 0.15 | 91 | 1018.3 |
| 20260902170841 | 75 | 69 | 1.0 | 7.0 | 0.15 | 0.15 | 0.15 | 91 | 1018.6 |
| 20260902170326 | 75 | 131 | 3.0 | 7.0 | 0.15 | 0.15 | 0.15 | 91 | 1018.4 |
| 20260902165830 | 75 | 90 | 2.0 | 5.0 | 0.15 | 0.15 | 0.15 | 91 | 1018.6 |
| 20260902165334 | 75 | 27 | 1.0 | 4.0 | 0.15 | 0.15 | 0.15 | 91 | 1018.7 |
| 20260902164838 | 74 | 360 | 1.0 | 3.0 | 0.15 | 0.15 | 0.15 | 91 | 1018.9 |
| 20260902164327 | 74 | 76 | 2.0 | 7.0 | 0.15 | 0.15 | 0.15 | 90 | 1018.5 |
| 20260902163855 | 74 | 73 | 1.0 | 14.0 | 0.15 | 0.15 | 0.15 | 89 | 1018.8 |
| 20260902163338 | 74 | 36 | 6.0 | 20.0 | 0.08 | 0.08 | 0.08 | 89 | 1019.1 |
| 20260902162843 | 74 | 344 | 10.0 | 24.0 | 0.05 | 0.05 | 0.05 | 87 | 1019.3 |
| 20260902162326 | 76 | 355 | 12.0 | 36.0 | 0.00 | 0.00 | 0.00 | 83 | 1020.0 |
| 20260902161831 | 81 | 14 | 16.0 | 36.0 | 0.00 | 0.00 | 0.00 | 71 | 1019.6 |
| 20260902161336 | 85 | 24 | 14.0 | 23.0 | 0.00 | 0.00 | 0.00 | 70 | 1019.5 |
| 20260902160840 | 87 | 346 | 5.0 | 7.0 | 0.00 | 0.00 | 0.00 | 75 | 1018.6 |
| 20260902160325 | 87 | 5 | 3.0 | 5.0 | 0.00 | 0.00 | 0.00 | 75 | 1018.4 |
| 20260902155829 | 87 | 324 | 2.0 | 3.0 | 0.00 | 0.00 | 0.00 | 72 | 1018.0 |
| 20260902155353 | 88 | 241 | 2.0 | 3.0 | 0.00 | 0.00 | 0.00 | 73 | 1017.9 |
| 20260902154836 | 88 | 241 | 0.0 | 3.0 | 0.00 | 0.00 | 0.00 | 75 | 1017.8 |
| 20260902154325 | 88 | 241 | 1.0 | 3.0 | 0.00 | 0.00 | 0.00 | 73 | 1017.7 |
| 20260902153849 | 88 | 191 | 1.0 | 2.0 | 0.00 | 0.00 | 0.00 | 74 | 1017.6 |
| 20260902153332 | 88 | 191 | 1.0 | 2.0 | 0.00 | 0.00 | 0.00 | 72 | 1017.4 |
| 20260902152838 | 88 | 258 | 0.0 | 3.0 | 0.00 | 0.00 | 0.00 | 73 | 1017.3 |
| 20260902152325 | 88 | 218 | 0.0 | 3.0 | 0.00 | 0.00 | 0.00 | 73 | 1017.3 |
| 20260902151830 | 87 | 218 | 0.0 | 4.0 | 0.00 | 0.00 | 0.00 | 74 | 1017.2 |
| 20260902151334 | 87 | 218 | 0.0 | 4.0 | 0.00 | 0.00 | 0.00 | 75 | 1017.0 |
| 20260902150839 | 87 | 236 | 2.0 | 4.0 | 0.00 | 0.00 | 0.00 | 74 | 1017.0 |
| 20260902150344 | 87 | 236 | 0.0 | 4.0 | 0.00 | 0.00 | 0.00 | 75 | 1017.0 |
| 20260902145828 | 87 | 236 | 2.0 | 4.0 | 0.00 | 0.00 | 0.00 | 71 | 1017.0 |
| 20260902145352 | 87 | 201 | 2.0 | 4.0 | 0.00 | 0.00 | 0.00 | 75 | 1016.9 |
| 20260902144835 | 87 | 201 | 1.0 | 3.0 | 0.00 | 0.00 | 0.00 | 75 | 1017.1 |
| 20260902144324 | 86 | 201 | 0.0 | 3.0 | 0.00 | 0.00 | 0.00 | 73 | 1016.9 |
| 20260902143828 | 86 | 201 | 1.0 | 4.0 | 0.00 | 0.00 | 0.00 | 75 | 1016.9 |
| 20260902143353 | 86 | 201 | 1.0 | 4.0 | 0.00 | 0.00 | 0.00 | 74 | 1016.8 |
| 20260902142836 | 86 | 201 | 0.0 | 3.0 | 0.00 | 0.00 | 0.00 | 75 | 1017.0 |
| 20260902142403 | 86 | 201 | 1.0 | 4.0 | 0.00 | 0.00 | 0.00 | 74 | 1017.0 |
| 20260902141826 | 85 | 201 | 1.0 | 5.0 | 0.00 | 0.00 | 0.00 | 74 | 1016.9 |
| 20260902141331 | 85 | 201 | 1.0 | 5.0 | 0.00 | 0.00 | 0.00 | 74 | 1017.0 |
| 20260902140836 | 85 | 196 | 1.0 | 4.0 | 0.00 | 0.00 | 0.00 | 76 | 1017.1 |
| 20260902140340 | 85 | 196 | 1.0 | 3.0 | 0.00 | 0.00 | 0.00 | 76 | 1016.9 |
| 20260902135825 | 84 | 196 | 0.0 | 3.0 | 0.00 | 0.00 | 0.00 | 78 | 1016.9 |
| 20260902135328 | 84 | 196 | 1.0 | 3.0 | 0.00 | 0.00 | 0.00 | 80 | 1017.0 |
| 20260902134832 | 83 | 196 | 1.0 | 4.0 | 0.00 | 0.00 | 0.00 | 79 | 1016.8 |
| 20260902134325 | 83 | 196 | 2.0 | 4.0 | 0.00 | 0.00 | 0.00 | 78 | 1017.0 |
| 20260902133829 | 83 | 196 | 0.0 | 3.0 | 0.00 | 0.00 | 0.00 | 80 | 1016.9 |
| 20260902133337 | 83 | 196 | 1.0 | 3.0 | 0.00 | 0.00 | 0.00 | 80 | 1016.9 |
| 20260902132901 | 82 | 196 | 1.0 | 4.0 | 0.00 | 0.00 | 0.00 | 80 | 1017.0 |
| 20260902132324 | 82 | 196 | 3.0 | 4.0 | 0.00 | 0.00 | 0.00 | 81 | 1017.1 |
| 20260902131827 | 82 | 196 | 0.0 | 3.0 | 0.00 | 0.00 | 0.00 | 82 | 1017.2 |
| 20260902131335 | 82 | 196 | 2.0 | 3.0 | 0.00 | 0.00 | 0.00 | 81 | 1017.2 |
| 20260902130840 | 82 | 196 | 1.0 | 4.0 | 0.00 | 0.00 | 0.00 | 82 | 1017.1 |
| 20260902130324 | 82 | 196 | 2.0 | 4.0 | 0.00 | 0.00 | 0.00 | 82 | 1017.1 |
| 20260902125849 | 81 | 196 | 1.0 | 3.0 | 0.00 | 0.00 | 0.00 | 82 | 1017.1 |
| 20260902125331 | 81 | 196 | 0.0 | 3.0 | 0.00 | 0.00 | 0.00 | 83 | 1017.2 |
| 20260902124856 | 81 | 196 | 0.0 | 3.0 | 0.00 | 0.00 | 0.00 | 84 | 1017.1 |
| 20260902124400 | 80 | 196 | 1.0 | 3.0 | 0.00 | 0.00 | 0.00 | 85 | 1017.0 |
| 20260902123843 | 80 | 196 | 2.0 | 3.0 | 0.00 | 0.00 | 0.00 | 84 | 1016.9 |
| 20260902123330 | 80 | 196 | 0.0 | 4.0 | 0.00 | 0.00 | 0.00 | 85 | 1016.8 |
| 20260902122838 | 79 | 196 | 2.0 | 3.0 | 0.00 | 0.00 | 0.00 | 85 | 1016.6 |
| 20260902122342 | 79 | 196 | 2.0 | 3.0 | 0.00 | 0.00 | 0.00 | 86 | 1016.6 |
| 20260902121825 | 78 | 196 | 1.0 | 3.0 | 0.00 | 0.00 | 0.00 | 87 | 1016.6 |
| 20260902121331 | 78 | 196 | 2.0 | 3.0 | 0.00 | 0.00 | 0.00 | 88 | 1016.6 |
| 20260902120838 | 77 | 198 | 1.0 | 3.0 | 0.00 | 0.00 | 0.00 | 90 | 1016.6 |
| 20260902120346 | 77 | 102 | 0.0 | 0.0 | 0.00 | 0.00 | 0.00 | 90 | 1016.6 |
| 20260902115849 | 76 | 102 | 0.0 | 1.0 | 0.00 | 0.00 | 0.00 | 90 | 1016.7 |
| 20260902115332 | 76 | 102 | 0.0 | 1.0 | 0.00 | 0.00 | 0.00 | 91 | 1016.6 |
| 20260902114837 | 76 | 102 | 0.0 | 2.0 | 0.00 | 0.00 | 0.00 | 91 | 1016.3 |
| 20260902114341 | 76 | 102 | 1.0 | 2.0 | 0.00 | 0.01 | 0.00 | 91 | 1016.3 |
| 20260902113826 | 75 | 102 | 0.0 | 1.0 | 0.00 | 0.01 | 0.00 | 92 | 1016.3 |
| 20260902113334 | 75 | 102 | 0.0 | 2.0 | 0.00 | 0.01 | 0.00 | 92 | 1016.5 |
| 20260902112839 | 75 | 102 | 1.0 | 2.0 | 0.00 | 0.01 | 0.00 | 92 | 1016.5 |
| 20260902112342 | 75 | 102 | 0.0 | 1.0 | 0.00 | 0.01 | 0.00 | 92 | 1016.3 |
| 20260902111847 | 75 | 102 | 0.0 | 3.0 | 0.00 | 0.01 | 0.00 | 92 | 1016.4 |
| 20260902111331 | 74 | 102 | 0.0 | 3.0 | 0.00 | 0.01 | 0.00 | 92 | 1016.1 |
| 20260902110855 | 74 | 355 | 0.0 | 2.0 | 0.00 | 0.01 | 0.00 | 92 | 1016.1 |
| 20260902110339 | 74 | 355 | 1.0 | 2.0 | 0.00 | 0.01 | 0.00 | 92 | 1016.2 |
| 20260902105843 | 74 | 355 | 0.0 | 1.0 | 0.00 | 0.01 | 0.00 | 92 | 1016.2 |
| 20260902105327 | 74 | 355 | 0.0 | 1.0 | 0.00 | 0.01 | 0.00 | 92 | 1016.3 |
| 20260902104831 | 74 | 355 | 0.0 | 1.0 | 0.00 | 0.01 | 0.00 | 92 | 1016.3 |
| 20260902104359 | 74 | 355 | 0.0 | 1.0 | 0.00 | 0.01 | 0.00 | 92 | 1016.3 |
| 20260902103826 | 74 | 355 | 0.0 | 1.0 | 0.00 | 0.01 | 0.00 | 92 | 1016.3 |
| 20260902103330 | 74 | 355 | 0.0 | 2.0 | 0.00 | 0.01 | 0.00 | 91 | 1016.5 |
| 20260902102839 | 74 | 355 | 0.0 | 2.0 | 0.00 | 0.01 | 0.00 | 90 | 1016.6 |
| 20260902102322 | 74 | 355 | 0.0 | 1.0 | 0.00 | 0.01 | 0.00 | 90 | 1016.8 |
| 20260902101849 | 75 | 355 | 0.0 | 1.0 | 0.00 | 0.01 | 0.00 | 91 | 1016.7 |
| 20260902101335 | 75 | 355 | 0.0 | 0.0 | 0.00 | 0.01 | 0.00 | 91 | 1016.5 |
| 20260902100843 | 75 | 355 | 0.0 | 0.0 | 0.00 | 0.01 | 0.00 | 91 | 1016.5 |
| 20260902100348 | 75 | 355 | 0.0 | 0.0 | 0.00 | 0.01 | 0.00 | 90 | 1016.5 |
| 20260902095831 | 75 | 355 | 0.0 | 0.0 | 0.00 | 0.01 | 0.00 | 90 | 1016.5 |
| 20260902095335 | 75 | 355 | 0.0 | 0.0 | 0.00 | 0.01 | 0.00 | 90 | 1016.6 |
| 20260902094839 | 75 | 355 | 0.0 | 0.0 | 0.00 | 0.01 | 0.00 | 90 | 1016.5 |
| 20260902094404 | 75 | 355 | 0.0 | 2.0 | 0.00 | 0.01 | 0.00 | 90 | 1016.5 |
| 20260902093846 | 75 | 355 | 0.0 | 2.0 | 0.00 | 0.01 | 0.00 | 90 | 1016.5 |
| 20260902093332 | 75 | 355 | 0.0 | 0.0 | 0.00 | 0.01 | 0.00 | 90 | 1016.5 |
| 20260902092838 | 75 | 355 | 0.0 | 0.0 | 0.00 | 0.01 | 0.00 | 90 | 1016.4 |
| 20260902092345 | 75 | 355 | 0.0 | 0.0 | 0.00 | 0.01 | 0.00 | 90 | 1016.2 |
| 20260902091833 | 75 | 355 | 0.0 | 0.0 | 0.00 | 0.01 | 0.00 | 90 | 1016.1 |
| 20260902091357 | 75 | 355 | 0.0 | 0.0 | 0.00 | 0.01 | 0.00 | 89 | 1016.2 |
| 20260902090844 | 75 | 355 | 0.0 | 0.0 | 0.00 | 0.01 | 0.00 | 89 | 1016.2 |
| 20260902090350 | 75 | 355 | 0.0 | 0.0 | 0.00 | 0.01 | 0.00 | 89 | 1016.3 |
| 20260902085857 | 75 | 355 | 0.0 | 1.0 | 0.00 | 0.01 | 0.00 | 89 | 1016.2 |
| 20260902085339 | 75 | 355 | 0.0 | 1.0 | 0.00 | 0.01 | 0.00 | 89 | 1016.2 |
| 20260902084827 | 76 | 355 | 0.0 | 1.0 | 0.00 | 0.01 | 0.00 | 89 | 1016.1 |
| 20260902084330 | 75 | 355 | 0.0 | 1.0 | 0.00 | 0.01 | 0.00 | 89 | 1016.2 |
| 20260902083837 | 75 | 355 | 0.0 | 1.0 | 0.00 | 0.01 | 0.00 | 89 | 1016.2 |
| 20260902083325 | 75 | 355 | 0.0 | 1.0 | 0.00 | 0.01 | 0.00 | 89 | 1016.1 |
| 20260902082829 | 75 | 355 | 0.0 | 1.0 | 0.00 | 0.01 | 0.00 | 89 | 1016.1 |
| 20260902082333 | 75 | 355 | 0.0 | 1.0 | 0.00 | 0.01 | 0.00 | 89 | 1016.1 |
| 20260902081838 | 75 | 355 | 0.0 | 1.0 | 0.00 | 0.01 | 0.00 | 89 | 1016.2 |
| 20260902081325 | 75 | 355 | 0.0 | 1.0 | 0.00 | 0.01 | 0.00 | 89 | 1016.3 |
| 20260902080833 | 75 | 355 | 0.0 | 1.0 | 0.00 | 0.01 | 0.00 | 89 | 1016.2 |
| 20260902080337 | 75 | 355 | 0.0 | 1.0 | 0.00 | 0.01 | 0.00 | 89 | 1016.0 |
| 20260902075842 | 75 | 355 | 0.0 | 1.0 | 0.00 | 0.01 | 0.00 | 89 | 1016.0 |
| 20260902075345 | 75 | 355 | 0.0 | 2.0 | 0.00 | 0.01 | 0.00 | 89 | 1016.0 |
| 20260902074829 | 75 | 355 | 0.0 | 2.0 | 0.00 | 0.01 | 0.00 | 88 | 1015.9 |
| 20260902074334 | 75 | 355 | 0.0 | 2.0 | 0.00 | 0.01 | 0.00 | 88 | 1015.9 |
| 20260902073838 | 76 | 355 | 1.0 | 1.0 | 0.00 | 0.01 | 0.00 | 88 | 1015.8 |
| 20260902073326 | 76 | 355 | 0.0 | 1.0 | 0.00 | 0.01 | 0.00 | 88 | 1015.9 |
| 20260902072830 | 76 | 355 | 0.0 | 1.0 | 0.00 | 0.01 | 0.00 | 88 | 1015.9 |
| 20260902072334 | 76 | 355 | 0.0 | 0.0 | 0.00 | 0.01 | 0.00 | 88 | 1015.9 |
| 20260902071838 | 76 | 355 | 0.0 | 0.0 | 0.00 | 0.01 | 0.00 | 88 | 1015.8 |
| 20260902071326 | 76 | 355 | 0.0 | 0.0 | 0.00 | 0.01 | 0.00 | 87 | 1015.9 |
| 20260902070832 | 76 | 355 | 0.0 | 0.0 | 0.00 | 0.01 | 0.00 | 87 | 1015.9 |
| 20260902070340 | 76 | 355 | 0.0 | 1.0 | 0.00 | 0.01 | 0.00 | 87 | 1015.9 |
| 20260902065905 | 76 | 355 | 0.0 | 1.0 | 0.00 | 0.01 | 0.00 | 87 | 1015.8 |
| 20260902065327 | 76 | 355 | 0.0 | 1.0 | 0.00 | 0.01 | 0.00 | 87 | 1015.6 |
| 20260902064851 | 77 | 355 | 0.0 | 2.0 | 0.00 | 0.01 | 0.00 | 87 | 1015.7 |
| 20260902064338 | 77 | 355 | 1.0 | 2.0 | 0.00 | 0.01 | 0.00 | 86 | 1015.8 |
| 20260902063843 | 77 | 355 | 0.0 | 2.0 | 0.00 | 0.01 | 0.00 | 86 | 1015.7 |
| 20260902063348 | 77 | 355 | 0.0 | 2.0 | 0.00 | 0.01 | 0.00 | 86 | 1015.7 |
| 20260902062831 | 77 | 355 | 0.0 | 2.0 | 0.00 | 0.01 | 0.00 | 86 | 1015.7 |
| 20260902062335 | 77 | 355 | 1.0 | 4.0 | 0.00 | 0.01 | 0.00 | 85 | 1015.8 |
| 20260902061859 | 77 | 355 | 2.0 | 4.0 | 0.00 | 0.01 | 0.00 | 85 | 1015.8 |
| 20260902061343 | 78 | 360 | 1.0 | 3.0 | 0.00 | 0.01 | 0.00 | 85 | 1015.8 |
| 20260902060847 | 78 | 322 | 1.0 | 4.0 | 0.00 | 0.01 | 0.00 | 85 | 1015.9 |
| 20260902060351 | 78 | 322 | 1.0 | 4.0 | 0.00 | 0.01 | 0.00 | 84 | 1016.0 |
| 20260902055839 | 79 | 322 | 3.0 | 4.0 | 0.00 | 0.01 | 0.00 | 83 | 1016.1 |
| 20260902055342 | 79 | 32 | 1.0 | 2.0 | 0.00 | 0.01 | 0.00 | 83 | 1015.9 |
| 20260902054825 | 79 | 312 | 0.0 | 2.0 | 0.00 | 0.01 | 0.00 | 83 | 1015.9 |
| 20260902054332 | 79 | 312 | 1.0 | 2.0 | 0.00 | 0.01 | 0.00 | 82 | 1016.1 |
| 20260902053840 | 79 | 312 | 1.0 | 2.0 | 0.00 | 0.01 | 0.00 | 81 | 1016.2 |
| 20260902053404 | 79 | 312 | 1.0 | 3.0 | 0.00 | 0.01 | 0.00 | 82 | 1016.2 |
| 20260902052848 | 79 | 312 | 0.0 | 3.0 | 0.00 | 0.01 | 0.00 | 82 | 1016.2 |
| 20260902052330 | 80 | 312 | 2.0 | 4.0 | 0.00 | 0.01 | 0.00 | 80 | 1016.5 |
| 20260902051858 | 81 | 312 | 2.0 | 4.0 | 0.00 | 0.01 | 0.00 | 78 | 1016.3 |
| 20260902051342 | 81 | 68 | 0.0 | 3.0 | 0.00 | 0.01 | 0.00 | 77 | 1016.2 |
| 20260902050826 | 81 | 121 | 1.0 | 4.0 | 0.00 | 0.01 | 0.00 | 77 | 1016.1 |
| 20260902050331 | 81 | 114 | 0.0 | 4.0 | 0.00 | 0.01 | 0.00 | 77 | 1016.1 |
| 20260902045835 | 82 | 140 | 1.0 | 3.0 | 0.00 | 0.01 | 0.00 | 77 | 1016.1 |
| 20260902045343 | 82 | 110 | 1.0 | 3.0 | 0.00 | 0.01 | 0.00 | 76 | 1016.2 |
| 20260902044828 | 82 | 76 | 0.0 | 3.0 | 0.00 | 0.01 | 0.00 | 76 | 1016.2 |
| 20260902044352 | 82 | 31 | 0.0 | 3.0 | 0.00 | 0.01 | 0.00 | 76 | 1016.2 |
| 20260902043835 | 82 | 31 | 0.0 | 3.0 | 0.00 | 0.01 | 0.00 | 76 | 1016.1 |
| 20260902043340 | 82 | 63 | 1.0 | 5.0 | 0.00 | 0.01 | 0.00 | 76 | 1016.1 |
| 20260902042825 | 82 | 94 | 2.0 | 5.0 | 0.00 | 0.01 | 0.00 | 75 | 1016.1 |
| 20260902042328 | 82 | 21 | 1.0 | 2.0 | 0.00 | 0.01 | 0.00 | 76 | 1016.0 |
| 20260902041836 | 81 | 269 | 0.0 | 1.0 | 0.00 | 0.01 | 0.00 | 77 | 1016.0 |
| 20260902041340 | 81 | 269 | 0.0 | 0.0 | 0.00 | 0.01 | 0.00 | 77 | 1015.9 |
| 20260902040825 | 81 | 269 | 0.0 | 0.0 | 0.00 | 0.01 | 0.00 | 77 | 1015.8 |
| 20260902040350 | 81 | 269 | 0.0 | 0.0 | 0.00 | 0.01 | 0.00 | 78 | 1015.7 |
| 20260902035852 | 81 | 269 | 0.0 | 0.0 | 0.00 | 0.01 | 0.00 | 77 | 1015.6 |
| 20260902035335 | 81 | 269 | 0.0 | 2.0 | 0.00 | 0.01 | 0.01 | 77 | 1015.7 |
| 20260902034843 | 81 | 269 | 1.0 | 2.0 | 0.00 | 0.01 | 0.01 | 77 | 1015.6 |
| 20260902034348 | 81 | 269 | 0.0 | 1.0 | 0.00 | 0.01 | 0.01 | 76 | 1015.5 |
| 20260902033831 | 81 | 269 | 0.0 | 1.0 | 0.00 | 0.01 | 0.01 | 76 | 1015.3 |
| 20260902033339 | 82 | 269 | 0.0 | 0.0 | 0.00 | 0.01 | 0.01 | 75 | 1015.5 |
| 20260902032904 | 82 | 269 | 0.0 | 1.0 | 0.00 | 0.01 | 0.01 | 75 | 1015.3 |
| 20260902032326 | 82 | 269 | 0.0 | 1.0 | 0.00 | 0.01 | 0.01 | 74 | 1015.4 |
| 20260902031829 | 82 | 269 | 0.0 | 3.0 | 0.00 | 0.01 | 0.01 | 74 | 1015.3 |
| 20260902031336 | 82 | 269 | 0.0 | 3.0 | 0.00 | 0.01 | 0.01 | 74 | 1015.3 |
| 20260902030824 | 83 | 269 | 0.0 | 2.0 | 0.00 | 0.01 | 0.01 | 73 | 1015.1 |
| 20260902030328 | 83 | 269 | 0.0 | 3.0 | 0.00 | 0.01 | 0.01 | 73 | 1014.9 |
| 20260902025833 | 83 | 269 | 1.0 | 3.0 | 0.00 | 0.01 | 0.01 | 73 | 1014.8 |
| 20260902025355 | 83 | 269 | 0.0 | 2.0 | 0.00 | 0.01 | 0.01 | 72 | 1014.9 |
| 20260902024826 | 84 | 269 | 1.0 | 2.0 | 0.00 | 0.01 | 0.01 | 72 | 1014.7 |
| 20260902024331 | 84 | 269 | 1.0 | 3.0 | 0.00 | 0.01 | 0.01 | 72 | 1014.7 |
| 20260902023835 | 83 | 269 | 2.0 | 3.0 | 0.00 | 0.01 | 0.01 | 72 | 1014.6 |
| 20260902023340 | 83 | 269 | 1.0 | 2.0 | 0.00 | 0.01 | 0.01 | 72 | 1014.4 |
| 20260902022844 | 84 | 269 | 1.0 | 3.0 | 0.00 | 0.01 | 0.01 | 72 | 1014.4 |
| 20260902022348 | 84 | 269 | 1.0 | 3.0 | 0.00 | 0.01 | 0.01 | 72 | 1014.3 |
| 20260902021832 | 84 | 269 | 0.0 | 3.0 | 0.00 | 0.01 | 0.01 | 71 | 1014.3 |
| 20260902021356 | 84 | 269 | 1.0 | 3.0 | 0.00 | 0.01 | 0.01 | 71 | 1014.4 |
| 20260902020840 | 84 | 269 | 1.0 | 3.0 | 0.00 | 0.01 | 0.01 | 70 | 1014.4 |
| 20260902020324 | 85 | 269 | 1.0 | 3.0 | 0.00 | 0.01 | 0.01 | 70 | 1014.4 |
| 20260902015829 | 85 | 269 | 1.0 | 5.0 | 0.00 | 0.01 | 0.01 | 69 | 1014.4 |
| 20260902015352 | 86 | 269 | 2.0 | 5.0 | 0.00 | 0.01 | 0.01 | 69 | 1014.5 |
| 20260902014836 | 85 | 266 | 1.0 | 3.0 | 0.00 | 0.01 | 0.01 | 69 | 1014.5 |
| 20260902014328 | 85 | 266 | 0.0 | 3.0 | 0.00 | 0.01 | 0.01 | 70 | 1014.6 |
| 20260902013832 | 85 | 265 | 1.0 | 3.0 | 0.00 | 0.01 | 0.01 | 70 | 1014.5 |
| 20260902013337 | 85 | 266 | 1.0 | 3.0 | 0.00 | 0.01 | 0.01 | 70 | 1014.6 |
| 20260902012841 | 85 | 266 | 1.0 | 2.0 | 0.00 | 0.01 | 0.01 | 70 | 1014.6 |
| 20260902012323 | 85 | 266 | 0.0 | 1.0 | 0.00 | 0.01 | 0.01 | 70 | 1014.7 |
| 20260902011831 | 86 | 265 | 0.0 | 3.0 | 0.00 | 0.01 | 0.01 | 70 | 1014.6 |
| 20260902011336 | 86 | 266 | 1.0 | 3.0 | 0.00 | 0.01 | 0.01 | 69 | 1014.6 |
| 20260902010840 | 86 | 265 | 1.0 | 3.0 | 0.00 | 0.01 | 0.01 | 69 | 1014.4 |
| 20260902010325 | 86 | 266 | 2.0 | 4.0 | 0.00 | 0.01 | 0.01 | 69 | 1014.4 |
| 20260902005830 | 87 | 265 | 3.0 | 5.0 | 0.00 | 0.01 | 0.01 | 68 | 1014.2 |
| 20260902005333 | 87 | 264 | 2.0 | 6.0 | 0.00 | 0.01 | 0.01 | 68 | 1013.9 |
| 20260902004842 | 87 | 248 | 1.0 | 6.0 | 0.00 | 0.01 | 0.01 | 68 | 1013.6 |
| 20260902004326 | 87 | 230 | 1.0 | 3.0 | 0.00 | 0.01 | 0.01 | 68 | 1013.5 |
| 20260902003833 | 87 | 230 | 1.0 | 4.0 | 0.00 | 0.01 | 0.01 | 67 | 1013.5 |
| 20260902003340 | 87 | 257 | 2.0 | 6.0 | 0.00 | 0.01 | 0.01 | 67 | 1013.5 |
| 20260902002828 | 87 | 190 | 2.0 | 7.0 | 0.00 | 0.01 | 0.01 | 68 | 1013.4 |
| 20260902002352 | 87 | 243 | 2.0 | 7.0 | 0.00 | 0.01 | 0.01 | 69 | 1013.4 |
| 20260902001835 | 86 | 263 | 2.0 | 4.0 | 0.00 | 0.01 | 0.01 | 69 | 1013.3 |
| 20260902001343 | 86 | 258 | 1.0 | 2.0 | 0.00 | 0.01 | 0.01 | 69 | 1013.1 |
| 20260902000827 | 87 | 258 | 0.0 | 2.0 | 0.00 | 0.01 | 0.01 | 69 | 1013.3 |
| 20260902000332 | 87 | 258 | 0.0 | 4.0 | 0.00 | 0.01 | 0.01 | 68 | 1013.3 |
| 20260901235837 | 88 | 259 | 0.0 | 5.0 | 0.00 | 0.01 | 0.01 | 67 | 1013.2 |
| 20260901235343 | 88 | 272 | 1.0 | 6.0 | 0.00 | 0.01 | 0.01 | 67 | 1013.1 |
| 20260901234830 | 89 | 277 | 2.0 | 7.0 | 0.00 | 0.01 | 0.01 | 66 | 1012.9 |
| 20260901234334 | 89 | 274 | 3.0 | 7.0 | 0.00 | 0.40 | 0.01 | 65 | 1012.7 |
| 20260901233859 | 89 | 266 | 4.0 | 11.0 | 0.00 | 0.40 | 0.01 | 65 | 1012.8 |
| 20260901233401 | 89 | 261 | 4.0 | 11.0 | 0.00 | 0.40 | 0.01 | 65 | 1012.8 |
| 20260901232828 | 90 | 255 | 4.0 | 9.0 | 0.00 | 0.40 | 0.01 | 65 | 1012.6 |
| 20260901232351 | 90 | 301 | 4.0 | 8.0 | 0.00 | 0.40 | 0.01 | 64 | 1012.7 |
| 20260901231835 | 90 | 284 | 3.0 | 8.0 | 0.00 | 0.40 | 0.01 | 64 | 1012.6 |
| 20260901231338 | 90 | 287 | 4.0 | 9.0 | 0.00 | 0.40 | 0.01 | 64 | 1012.6 |
| 20260901230826 | 91 | 285 | 5.0 | 9.0 | 0.00 | 0.40 | 0.01 | 63 | 1012.6 |
| 20260901230351 | 91 | 267 | 4.0 | 7.0 | 0.00 | 0.40 | 0.01 | 64 | 1012.6 |
| 20260901225834 | 91 | 269 | 4.0 | 7.0 | 0.00 | 0.40 | 0.01 | 64 | 1012.7 |
| 20260901225338 | 91 | 256 | 4.0 | 7.0 | 0.00 | 0.40 | 0.01 | 63 | 1012.8 |
| 20260901224842 | 91 | 279 | 4.0 | 7.0 | 0.00 | 0.40 | 0.01 | 63 | 1012.7 |
| 20260901224330 | 91 | 261 | 4.0 | 7.0 | 0.00 | 0.63 | 0.01 | 63 | 1012.7 |
| 20260901223838 | 91 | 268 | 4.0 | 7.0 | 0.00 | 0.63 | 0.01 | 64 | 1012.6 |
| 20260901223342 | 92 | 271 | 4.0 | 8.0 | 0.00 | 0.63 | 0.01 | 64 | 1012.6 |
| 20260901222827 | 92 | 263 | 5.0 | 8.0 | 0.00 | 0.63 | 0.01 | 63 | 1012.6 |
| 20260901222330 | 92 | 306 | 4.0 | 9.0 | 0.00 | 0.63 | 0.01 | 63 | 1012.6 |
| 20260901221835 | 92 | 244 | 5.0 | 9.0 | 0.00 | 0.63 | 0.01 | 63 | 1012.7 |
| 20260901221339 | 93 | 275 | 4.0 | 8.0 | 0.00 | 0.63 | 0.01 | 62 | 1012.7 |